Previsão horária em Plitniki

Hoje, 3 Março, Quarta-feira

Tempo Temperatura Precipitação Vento Pressão Humidade
00:00 -1°C° 0 mm 3 m/s 756 mmHg 83%
01:00 -2°C° 0 mm 3 m/s 756 mmHg 85%
02:00 -2°C° 0 mm 3 m/s 756 mmHg 87%
03:00 -2°C° 0 mm 3 m/s 756 mmHg 88%
04:00 -2°C° 0 mm 3 m/s 756 mmHg 89%
05:00 -3°C° 0 mm 4 m/s 756 mmHg 90%
06:00 -3°C° 0 mm 4 m/s 756 mmHg 88%
07:00 -3°C° 0 mm 4 m/s 756 mmHg 87%
08:00 -2°C° 0 mm 4 m/s 756 mmHg 85%
09:00 -1°C° 0 mm 4 m/s 756 mmHg 78%
10:00 0°C° 0 mm 4 m/s 755 mmHg 71%
11:00 +3°C° 0 mm 4 m/s 755 mmHg 65%
12:00 +3°C° 0 mm 5 m/s 754 mmHg 63%
13:00 +3°C° 0 mm 5 m/s 754 mmHg 60%
14:00 +5°C° 0 mm 5 m/s 753 mmHg 58%
15:00 +5°C° 0 mm 5 m/s 752 mmHg 61%
16:00 +4°C° 0 mm 4 m/s 752 mmHg 64%
17:00 +4°C° 0 mm 4 m/s 751 mmHg 67%
18:00 +3°C° 0 mm 4 m/s 750 mmHg 70%
19:00 +1°C° 0 mm 4 m/s 750 mmHg 73%
20:00 0°C° 0 mm 4 m/s 749 mmHg 77%
21:00 0°C° 0 mm 4 m/s 748 mmHg 79%
22:00 0°C° 0 mm 4 m/s 748 mmHg 82%
23:00 0°C° 0 mm 4 m/s 747 mmHg 85%

Amanhã, 4 Março, Quinta-feira

Tempo Temperatura Precipitação Vento Pressão Humidade
00:00 0°C° 0 mm 4 m/s 746 mmHg 85%
01:00 -1°C° 0 mm 4 m/s 746 mmHg 86%
02:00 -1°C° 0 mm 4 m/s 745 mmHg 86%
03:00 0°C° 0 mm 3 m/s 744 mmHg 87%
04:00 0°C° 0 mm 3 m/s 744 mmHg 87%
05:00 0°C° 0 mm 3 m/s 743 mmHg 88%
06:00 -1°C° 0 mm 3 m/s 742 mmHg 88%
07:00 -1°C° 0 mm 3 m/s 742 mmHg 87%
08:00 -1°C° 0 mm 3 m/s 742 mmHg 87%
09:00 0°C° 0 mm 3 m/s 741 mmHg 89%
10:00 0°C° 0 mm 3 m/s 741 mmHg 90%
11:00 0°C° 0 mm 3 m/s 741 mmHg 92%
12:00 0°C° 0.1 mm 3 m/s 741 mmHg 90%
13:00 -1°C° 0.1 mm 4 m/s 741 mmHg 89%
14:00 -1°C° 0.1 mm 4 m/s 741 mmHg 88%
15:00 -1°C° 0 mm 4 m/s 741 mmHg 79%
16:00 -1°C° 0 mm 4 m/s 741 mmHg 71%
17:00 0°C° 0 mm 3 m/s 741 mmHg 62%
18:00 -1°C° 0 mm 3 m/s 741 mmHg 65%
19:00 -2°C° 0 mm 3 m/s 742 mmHg 69%
20:00 -2°C° 0 mm 3 m/s 743 mmHg 72%
21:00 -4°C° 0 mm 3 m/s 743 mmHg 73%
22:00 -4°C° 0 mm 3 m/s 743 mmHg 75%
23:00 -5°C° 0 mm 3 m/s 744 mmHg 76%

Depois de amanhã, 5 Março, Sexta-feira

Tempo Temperatura Precipitação Vento Pressão Humidade
00:00 -5°C° 0 mm 3 m/s 744 mmHg 75%
01:00 -6°C° 0 mm 3 m/s 744 mmHg 73%
02:00 -5°C° 0 mm 2 m/s 745 mmHg 72%
03:00 -5°C° 0 mm 2 m/s 745 mmHg 72%
04:00 -5°C° 0 mm 2 m/s 745 mmHg 71%
05:00 -3°C° 0 mm 1 m/s 745 mmHg 71%
06:00 -5°C° 0 mm 2 m/s 745 mmHg 69%
07:00 -5°C° 0 mm 2 m/s 745 mmHg 67%
08:00 -4°C° 0 mm 2 m/s 746 mmHg 65%
09:00 -4°C° 0.1 mm 2 m/s 746 mmHg 66%
10:00 -4°C° 0.1 mm 3 m/s 746 mmHg 67%
11:00 -2°C° 0.1 mm 3 m/s 746 mmHg 69%
12:00 -3°C° 0.2 mm 4 m/s 746 mmHg 62%
13:00 -4°C° 0.2 mm 5 m/s 747 mmHg 56%
14:00 -3°C° 0.2 mm 6 m/s 747 mmHg 49%
15:00 -4°C° 0 mm 5 m/s 747 mmHg 46%
16:00 -5°C° 0 mm 5 m/s 747 mmHg 42%
17:00 -4°C° 0 mm 4 m/s 747 mmHg 39%
18:00 -5°C° 0 mm 3 m/s 748 mmHg 44%
19:00 -5°C° 0 mm 3 m/s 749 mmHg 49%
20:00 -5°C° 0 mm 2 m/s 750 mmHg 55%
21:00 -5°C° 0 mm 2 m/s 750 mmHg 58%
22:00 -5°C° 0 mm 2 m/s 751 mmHg 61%
23:00 -5°C° 0 mm 2 m/s 751 mmHg 64%

6 Março, Sábado

Tempo Temperatura Precipitação Vento Pressão Humidade
00:00 -7°C° 0 mm 3 m/s 751 mmHg 66%
01:00 -7°C° 0 mm 3 m/s 752 mmHg 68%
02:00 -7°C° 0 mm 3 m/s 752 mmHg 70%
03:00 -8°C° 0 mm 3 m/s 752 mmHg 72%
04:00 -8°C° 0 mm 3 m/s 753 mmHg 73%
05:00 -7°C° 0 mm 2 m/s 753 mmHg 75%
06:00 -7°C° 0 mm 2 m/s 753 mmHg 73%
07:00 -7°C° 0 mm 2 m/s 754 mmHg 71%
08:00 -7°C° 0 mm 2 m/s 754 mmHg 69%
09:00 -7°C° 0 mm 3 m/s 754 mmHg 64%
10:00 -6°C° 0 mm 3 m/s 754 mmHg 58%
11:00 -5°C° 0 mm 3 m/s 754 mmHg 53%
12:00 -4°C° 0 mm 3 m/s 754 mmHg 47%
13:00 -3°C° 0 mm 4 m/s 753 mmHg 40%
14:00 -2°C° 0 mm 4 m/s 753 mmHg 34%
15:00 -4°C° 0 mm 5 m/s 752 mmHg 37%
16:00 -4°C° 0 mm 5 m/s 752 mmHg 40%
17:00 -4°C° 0 mm 5 m/s 751 mmHg 43%
18:00 -4°C° 0 mm 6 m/s 750 mmHg 47%
19:00 -4°C° 0 mm 6 m/s 749 mmHg 52%
20:00 -4°C° 0 mm 6 m/s 749 mmHg 56%
21:00 -4°C° 0 mm 7 m/s 748 mmHg 59%
22:00 -4°C° 0 mm 7 m/s 747 mmHg 61%
23:00 -5°C° 0 mm 8 m/s 746 mmHg 64%

7 Março, Domingo

Tempo Temperatura Precipitação Vento Pressão Humidade
00:00 -5°C° 0.1 mm 8 m/s 745 mmHg 71%
01:00 -5°C° 0.1 mm 8 m/s 744 mmHg 78%
02:00 -5°C° 0.1 mm 8 m/s 742 mmHg 85%
03:00 -4°C° 0.2 mm 8 m/s 742 mmHg 88%
04:00 -4°C° 0.2 mm 8 m/s 741 mmHg 90%
05:00 -4°C° 0.2 mm 8 m/s 740 mmHg 92%
06:00 -4°C° 0.3 mm 8 m/s 740 mmHg 91%
07:00 -4°C° 0.3 mm 8 m/s 740 mmHg 90%
08:00 -4°C° 0.3 mm 8 m/s 739 mmHg 89%
09:00 -4°C° 0.2 mm 9 m/s 739 mmHg 80%
10:00 -4°C° 0.2 mm 9 m/s 739 mmHg 71%
11:00 -4°C° 0.2 mm 10 m/s 739 mmHg 61%
12:00 -4°C° 0 mm 10 m/s 740 mmHg 57%
13:00 -4°C° 0 mm 9 m/s 740 mmHg 52%
14:00 -5°C° 0 mm 9 m/s 740 mmHg 47%
15:00 -5°C° 0 mm 8 m/s 740 mmHg 48%
16:00 -5°C° 0 mm 8 m/s 740 mmHg 48%
17:00 -6°C° 0 mm 7 m/s 740 mmHg 48%
18:00 -6°C° 0 mm 7 m/s 741 mmHg 50%
19:00 -7°C° 0 mm 7 m/s 741 mmHg 53%
20:00 -7°C° 0 mm 7 m/s 742 mmHg 55%
21:00 -8°C° 0 mm 6 m/s 742 mmHg 58%
22:00 -8°C° 0 mm 6 m/s 743 mmHg 61%
23:00 -7°C° 0 mm 5 m/s 743 mmHg 64%

8 Março, Segunda-feira

Tempo Temperatura Precipitação Vento Pressão Humidade
00:00 -7°C° 0 mm 4 m/s 743 mmHg 69%
01:00 -7°C° 0 mm 4 m/s 744 mmHg 75%
02:00 -7°C° 0 mm 3 m/s 744 mmHg 80%
03:00 -7°C° 0.1 mm 3 m/s 744 mmHg 80%
04:00 -7°C° 0.1 mm 3 m/s 744 mmHg 81%
05:00 -7°C° 0.1 mm 3 m/s 744 mmHg 81%
06:00 -7°C° 0 mm 3 m/s 744 mmHg 79%
07:00 -8°C° 0 mm 3 m/s 745 mmHg 77%
08:00 -9°C° 0 mm 4 m/s 745 mmHg 75%
09:00 -9°C° 0 mm 4 m/s 746 mmHg 70%
10:00 -9°C° 0 mm 4 m/s 746 mmHg 65%
11:00 -8°C° 0 mm 4 m/s 747 mmHg 60%
12:00 -8°C° 0 mm 5 m/s 747 mmHg 58%
13:00 -8°C° 0 mm 5 m/s 748 mmHg 56%
14:00 -8°C° 0 mm 5 m/s 748 mmHg 54%
15:00 -8°C° 0 mm 5 m/s 749 mmHg 52%
16:00 -8°C° 0 mm 5 m/s 749 mmHg 51%
17:00 -10°C° 0 mm 5 m/s 750 mmHg 50%
18:00 -10°C° 0 mm 5 m/s 751 mmHg 51%
19:00 -10°C° 0 mm 4 m/s 751 mmHg 52%
20:00 -11°C° 0 mm 4 m/s 752 mmHg 53%
21:00 -11°C° 0 mm 4 m/s 753 mmHg 55%
22:00 -12°C° 0 mm 4 m/s 754 mmHg 58%
23:00 -12°C° 0 mm 3 m/s 754 mmHg 60%
Mostrar mais

Necessitamos do seu Consentimento

A Meteoprog e os seus Fornecedores de Serviços podem armazenar e aceder a dados pessoais como cookies, identificadores do dispositivo ou outras tecnologias semelhantes existentes no seu dispositivo e processar estes dados para personalizar conteúdos e anúncios, assim como funcionalidades nas redes sociais e análise de tráfego.

  • Armazenar e/ou aceder a informações no seu dispositivo

    Os cookies, identificadores do dispositivo ou outras informações podem ser armazenados ou acedidos no seu dispositivo, para os fins acima indicados.

  • Anúncios e conteúdos personalizados, medição de anúncios e conteúdos, dados sobre o público-alvo e desenvolvimento de produtos

    Os anúncios e os conteúdos podem ser personalizados com base num perfil. Podem ser adicionados dados adicionais para uma maior personalização dos anúncios e dos conteúdos. A eficácia dos anúncios e dos conteúdos pode ser medida. Podem ser obtidas informações sobre o público que visualizou os anúncios e os conteúdos. Estes dados podem ser usados para desenvolver ou melhorar sistemas, softwares ou a experiência do utilizador.

Ao clicar em "Eu concordo”, permitirá o uso de cookies, identificadores do dispositivo e web beacons mencionados ou outras tecnologias semelhantes. As configurações do navegador do seu dispositivo podem ser alteradas.

Para certos fins, podem ser invocados interesses legítimos ao invés de consentimento. Pode ler mais informação sobre este assunto na nossa Política de Privacidade e Cookies.